This demonstration page uses our WeatherBlox Daily Observations layout. Learn more.

Left ArrowRight Arrow

36.17497, -115.13722

Hourly Observations for October 19, 2021

Temp ( °F °C ) Dew Point ( °F °C ) Humidity (%) Winds ( mph kmh ) Pressure ( in mb ) Visibility ( mi km ) Precip ( " mm )
12:53 am 00:53 Clear 58 14.4 22 -5.6 25 25 WNW 13 20 29.94 1014 10 16 N/A
1:53 am 01:53 Clear 58 14.4 22 -5.6 25 25 WNW 18 30 29.95 1014 10 16 N/A
2:53 am 02:53 Clear 53 11.7 24 -4.4 32 32 NNE 7 11 29.98 1015 10 16 N/A
3:53 am 03:53 Clear 53 11.7 25 -3.9 34 34 NNW 10 17 29.97 1015 10 16 N/A
4:53 am 04:53 Clear 53 11.7 25 -3.9 34 34 NNW 14 22 29.98 1015 10 16 N/A
5:53 am 05:53 Clear 51 10.6 25 -3.9 36 36 W 8 13 30.01 1016 10 16 N/A
6:53 am 06:53 Sunny 51 10.6 26 -3.3 38 38 WNW 10 17 30.02 1017 10 16 N/A
7:53 am 07:53 Sunny 54 12.2 26 -3.3 34 34 NNW 9 15 30.04 1017 10 16 N/A
8:53 am 08:53 Sunny 57 13.9 27 -2.8 32 32 NW 8 13 30.06 1018 10 16 N/A
9:53 am 09:53 Sunny 62 16.7 26 -3.3 25 25 NNE 5 7 30.07 1018 10 16 N/A
10:53 am 10:53 Sunny 64 17.8 24 -4.4 22 22 N N/A 30.07 1018 10 16 N/A
11:53 am 11:53 Sunny 65 18.3 24 -4.4 21 21 undefined N/A 30.06 1018 10 16 N/A
12:53 pm 12:53 Sunny 66 18.9 24 -4.4 20 20 E 5 7 30.04 1017 10 16 N/A
1:53 pm 13:53 Sunny 69 20.6 23 -5 17 17 N N/A 30.02 1017 10 16 N/A
2:53 pm 14:53 Sunny 69 20.6 22 -5.6 17 17 SE 6 9 30.01 1016 10 16 N/A
3:53 pm 15:53 Sunny 70 21.1 22 -5.6 16 16 ENE 6 9 30.01 1016 10 16 N/A
4:53 pm 16:53 Sunny 70 21.1 21 -6.1 16 16 VRB 3 6 30.00 1016 10 16 N/A
5:53 pm 17:53 Sunny 67 19.4 21 -6.1 17 17 E 6 9 30.01 1016 10 16 N/A
6:53 pm 18:53 Clear 65 18.3 21 -6.1 19 19 ENE 5 7 30.02 1017 10 16 N/A
7:53 pm 19:53 Clear 66 18.9 23 -5 19 19 N N/A 30.03 1017 10 16 N/A
8:53 pm 20:53 Clear 61 16.1 26 -3.3 26 26 W 5 7 30.04 1017 10 16 N/A
9:53 pm 21:53 Clear 58 14.4 28 -2.2 32 32 NNW 3 6 30.06 1018 10 16 N/A
10:53 pm 22:53 Clear 58 14.4 27 -2.8 31 31 W 5 7 30.07 1018 10 16 N/A
11:53 pm 23:53 Clear 56 13.3 28 -2.2 34 34 W 6 9 30.08 1019 10 16 N/A

Powered by AerisWeather